Weather in Inírida

Colombia     3°52′20″N   67°55′20″W
temp.,
°C
wind,
m/s
gust,
m/s
humid.,
%
clouds,
%
prec.,
mm/h
press.,
hPa
HPBL,
m
11 april, sun
sun1101:00+22wnw0098100 0.1 101024
04:00+22nw1199100 0.0 101028
07:00+24nw1195100 0.7 1011218
10:00+27nnw1179100 0.3 1012745
13:00+28w1182100 3.3 1008748
16:00+28s1186100 1.9 1007237
19:00+24se0195100 13.9 100912
22:00+23sse2799100 22.9 1012350
12 april, mon
mon1201:00+22n01100100 32.9 101066
04:00+22sse1199100 0.5 101152
07:00+23sse0198100 0.6 101397
10:00+26s1285100 0.1 1014611
13:00+29ese127195 1.0 10101005
16:00+27wnw1387100 1.4 1009135
19:00+23nw1397100 3.5 101176
22:00+23wnw159983 0.8 1013194
13 april, tue
tue1301:00+22nw1499100 0.8 1012176
04:00+22wnw1299100 0.1 101161
07:00+23w1295100 0.1 1014282
10:00+28wsw117287 0.0 1014862
13:00+29ssw126737 1.8 10101061
16:00+27s138698 2.3 1009210
19:00+24ssw119597 3.2 101126
22:00+23s009798 0.0 101313
14 april, wed
wed1401:00+23sw009788 0.1 101122
04:00+23w019895 0.1 101122
07:00+24ssw019264 0.1 1013236
10:00+31sw116599 0.3 10131168
13:00+29wnw1178100 4.4 1010840
16:00+27wsw0192100 4.4 1008165
19:00+24se1296100 14.2 101155
22:00+23ese2599100 11.3 1013253
15 april, thu
thu1501:00+22se2799100 42.4 1011397
04:00+22sw11100100 5.6 101180
07:00+22wnw0199100 8.6 101359
10:00+22wsw1198100 1.3 1014145
13:00+23w0194100 1.3 1011257
16:00+24wsw1291100 0.1 1010332
19:00+22wnw119798 0.1 101229
22:00+22wnw119884 0.0 101331